FW2285 Weather Reports


Display with metric or nautical units.
time (UTC)temp
F
wind
direction
speed
MPH
gust
MPH
rain 1hr
in
rain 24hr
in
rain mn
in
humidity
%
barometer
mb
20260506113016 45 281 0.0 0.0 0.00 0.32 0.03 60 1017.7
20260506111515 45 281 0.0 0.0 0.00 0.32 0.03 60 1018.1
20260506110016 45 281 0.0 0.0 0.00 0.32 0.03 60 1018.1
20260506104513 45 281 0.0 0.0 0.00 0.32 0.03 60 1018.1
20260506103024 45 281 0.0 2.0 0.00 0.32 0.03 60 1018.1
20260506101509 45 281 0.0 0.0 0.00 0.32 0.03 60 1017.5
20260506100007 45 281 0.0 0.0 0.00 0.32 0.03 60 1017.1
20260506094518 45 281 0.0 0.0 0.00 0.32 0.03 60 1017.3
20260506093006 45 281 0.0 0.0 0.00 0.32 0.03 61 1017.1
20260506091506 45 281 0.0 0.0 0.00 0.32 0.03 60 1017.0
20260506090005 45 281 0.0 0.0 0.00 0.32 0.03 60 1017.1
20260506084505 45 281 0.0 0.0 0.00 0.32 0.03 60 1017.1
20260506083004 45 281 0.0 0.0 0.00 0.32 0.03 60 1016.9
20260506081504 45 281 0.0 0.0 0.00 0.32 0.03 60 1016.6
20260506073002 45 281 0.0 0.0 0.01 0.37 0.03 61 1015.7
20260506071501 45 281 0.0 0.0 0.01 0.37 0.03 61 1015.6
20260506070117 45 281 0.0 0.0 0.01 0.37 0.03 61 1016.2
20260506061556 46 281 0.0 7.0 0.02 0.36 0.02 59 1016.9
20260506044552 50 31 1.0 11.0 0.00 0.33 0.33 47 1016.3
20260506043038 50 265 2.0 9.0 0.00 0.33 0.33 48 1016.2
20260506041547 51 298 1.0 5.0 0.00 0.33 0.33 47 1015.9
20260506040042 49 291 1.0 3.0 0.00 0.33 0.33 56 1016.1
20260506034532 49 55 0.0 0.0 0.00 0.33 0.33 55 1015.4
20260506033031 50 55 0.0 0.0 0.00 0.33 0.33 53 1014.9
20260506031534 50 55 0.0 1.0 0.00 0.33 0.33 52 1014.7
20260506030029 50 56 0.0 0.0 0.00 0.33 0.33 53 1014.5
20260506024533 50 57 0.0 2.0 0.00 0.33 0.33 54 1014.4
20260506023026 49 294 0.0 3.0 0.00 0.33 0.33 59 1014.3
20260506021524 49 346 0.0 0.0 0.00 0.33 0.33 60 1013.9
20260506020024 50 346 0.0 0.0 0.00 0.33 0.33 60 1013.6
20260506014523 50 346 0.0 0.0 0.00 0.33 0.33 60 1013.5
20260506013025 51 346 0.0 0.0 0.00 0.33 0.33 61 1013.3
20260506011525 51 346 0.0 0.0 0.00 0.33 0.33 61 1013.3
20260506010023 51 346 0.0 0.0 0.00 0.33 0.33 61 1013.1
20260506004521 51 346 0.0 0.0 0.00 0.33 0.33 60 1013.3
20260506003022 52 346 0.0 1.0 0.00 0.33 0.33 60 1013.2
20260506001520 52 346 0.0 2.0 0.00 0.33 0.33 59 1012.9
20260506000019 52 346 0.0 0.0 0.00 0.33 0.33 59 1012.6
20260505234539 53 346 0.0 0.0 0.00 0.33 0.33 56 1012.8
20260505233019 52 343 0.0 2.0 0.00 0.33 0.33 55 1013.0
20260505231518 52 343 0.0 1.0 0.00 0.33 0.33 56 1013.1
20260505230017 53 343 0.0 1.0 0.00 0.33 0.33 54 1012.7
20260505224526 53 343 0.0 2.0 0.00 0.33 0.33 54 1012.6
20260505223016 53 343 0.0 3.0 0.00 0.33 0.33 53 1012.8
20260505221516 53 343 0.0 1.0 0.00 0.33 0.33 54 1012.8
20260505220015 53 343 0.0 0.0 0.00 0.33 0.33 55 1012.7
20260505214520 53 343 0.0 0.0 0.00 0.33 0.33 55 1012.8
20260505213014 53 344 0.0 2.0 0.00 0.33 0.33 54 1012.7
20260505211515 53 345 0.0 3.0 0.00 0.33 0.33 54 1012.8
20260505210014 53 319 1.0 3.0 0.00 0.33 0.33 55 1013.1
20260505204523 53 319 0.0 3.0 0.00 0.33 0.33 54 1013.0
20260505203015 52 319 0.0 3.0 0.00 0.33 0.33 54 1013.1
20260505201511 52 329 1.0 3.0 0.00 0.33 0.33 54 1013.1
20260505200020 52 329 0.0 4.0 0.00 0.33 0.33 55 1013.1
20260505194511 51 196 0.0 3.0 0.00 0.33 0.33 55 1013.1
20260505193011 50 242 0.0 2.0 0.00 0.33 0.33 55 1013.2
20260505191512 49 242 0.0 3.0 0.00 0.33 0.33 55 1013.1
20260505190012 49 243 0.0 1.0 0.01 0.33 0.33 55 1013.1
20260505184520 49 55 0.0 1.0 0.01 0.33 0.33 57 1013.2
20260505183022 49 95 0.0 2.0 0.01 0.33 0.33 56 1013.2
20260505181507 48 96 0.0 1.0 0.01 0.33 0.33 56 1013.3
20260505180007 48 96 0.0 3.0 0.00 0.32 0.32 56 1013.3
20260505174510 48 95 0.0 3.0 0.00 0.32 0.32 57 1013.3
20260505173017 48 344 0.0 2.0 0.00 0.32 0.32 57 1013.8
20260505171506 48 311 0.0 4.0 0.00 0.32 0.32 57 1014.0
20260505170008 48 18 0.0 1.0 0.00 0.32 0.32 57 1013.7
20260505164505 48 108 0.0 1.0 0.01 0.32 0.32 57 1013.6
20260505163004 48 96 0.0 1.0 0.02 0.32 0.32 58 1013.5
20260505161502 47 54 0.0 1.0 0.02 0.32 0.32 58 1013.6
20260505153001 47 80 0.0 0.0 0.05 0.30 0.30 60 1013.7
20260505151608 47 80 0.0 0.0 0.06 0.30 0.30 60 1013.1
20260505124545 48 69 0.0 2.0 0.07 0.12 0.12 59 1010.9
20260505123038 49 82 1.0 3.0 0.05 0.10 0.10 56 1010.6
20260505121540 50 84 0.0 3.0 0.02 0.07 0.07 52 1010.9
20260505120041 51 91 0.0 3.0 0.00 0.05 0.05 47 1010.5
20260505114534 51 5 0.0 3.0 0.00 0.05 0.05 46 1010.2